Stations météo

réclame
Mon MeteoGroup
Tännäs, Suède (2308): Température de l'air & dewpoint: 08.08.2018 19:00:00 - 14.08.2018 19:00:00 (CEST)Tännäs, Suède (2308): Vitesse du vent & gusts: 08.08.2018 19:00:00 - 14.08.2018 19:00:00 (CEST)Tännäs, Suède (2308): Direction du vent: 08.08.2018 19:00:00 - 14.08.2018 19:00:00 (CEST)Tännäs, Suède (2308): reduced air pressure: 08.08.2018 19:00:00 - 14.08.2018 19:00:00 (CEST)Tännäs, Suède (2308): visibility: 08.08.2018 19:00:00 - 14.08.2018 19:00:00 (CEST)Tännäs, Suède (2308): Quantités de précipitations: 08.08.2018 19:00:00 - 14.08.2018 19:00:00 (CEST)
Date & Time tt [°C] td [°C] ff [km/h] ff [knt] fx [km/h] fx [knt] dd ppp [hPa] vv [km] rr [mm]
14.08.2018 19:00:00 14,4 5,5 2 1 16 9 W 1006,4 50 0,0
14.08.2018 18:00:00 15,2 5,7 4 2 16 8 SSW 1006,4 50 0,0
14.08.2018 17:00:00 15,4 4,7 4 2 16 8 SSW 1006,6 50 0,0
14.08.2018 16:00:00 15,4 5,6 4 2 17 9 SSW 1006,8 50 0,0
14.08.2018 15:00:00 16,6 7,5 3 2 15 8 SSW 1006,5 47 0,0
14.08.2018 14:00:00 15,6 6,9 3 2 16 9 SSW 1006,9 49 0,0
14.08.2018 13:00:00 16,2 5,5 7 4 20 11 W 1006,7 33 0,0
14.08.2018 12:00:00 15,4 8,2 5 3 14 8 SSE 1007,3 44 0,0
14.08.2018 11:00:00 12,6 7,3 3 2 9 5 SSW 1008,6 48 0,0
14.08.2018 10:00:00 9,6 6,1 4 2 12 7 ESE 1009,8 50 0,0
14.08.2018 09:00:00 8,2 5,8 3 1 7 4 SSW 1010,4 50 0,0
14.08.2018 08:00:00 4,8 4,5 1 1 4 2 WNW 1011,7 47 0,0
14.08.2018 07:00:00 3,7 3,3 1 1 3 2 E 1012,2 50 0,0
14.08.2018 06:00:00 3,7 3,1 1 0 3 2 NNE 1012,2 50 0,0
14.08.2018 05:00:00 4,4 4,0 1 0 2 1 NNE 1012,2 50 0,0
14.08.2018 04:00:00 4,2 3,6 1 1 5 3 E 1012,6 47 0,0
14.08.2018 03:00:00 4,6 4,0 1 1 3 2 E 1012,6 50 0,0
14.08.2018 02:00:00 3,8 2,9 2 1 4 2 NE 1012,8 50 0,0
14.08.2018 01:00:00 4,1 3,1 2 1 4 2 NE 1012,7 50 0,0
14.08.2018 00:00:00 4,6 3,4 2 1 5 3 N 1012,6 50 0,0
13.08.2018 23:00:00 4,8 3,1 1 1 5 3 N 1012,4 50 0,0
13.08.2018 22:00:00 5,8 4,0 2 1 7 4 E 1012,0 50 0,0
13.08.2018 21:00:00 7,6 4,9 1 1 6 4 E 1011,2 50 0,0
13.08.2018 20:00:00 10,4 6,0 2 1 10 5 WNW 1009,9 50 0,0
13.08.2018 19:00:00 11,4 4,4 4 2 19 11 WNW 1009,6 50 0,0
13.08.2018 18:00:00 11,5 4,7 5 3 23 12 WNW 1009,6 50 0,0
13.08.2018 17:00:00 12,9 4,6 4 2 29 15 W 1009,2 50 0,0
13.08.2018 16:00:00 14,7 7,0 10 5 24 13 W 1008,5 33 0,0
13.08.2018 15:00:00 13,0 6,8 9 5 21 11 WNW 1009,1 50 0,0
13.08.2018 14:00:00 12,3 5,5 9 5 29 15 W 1009,4 49 0,0
13.08.2018 13:00:00 13,0 6,6 9 5 26 14 W 1008,9 42 0,0
13.08.2018 12:00:00 12,0 6,7 9 5 34 19 W 1009,2 44 0,0
13.08.2018 11:00:00 10,0 5,8 11 6 29 15 WNW 1009,8 48 0,0
13.08.2018 10:00:00 8,8 6,6 8 5 27 15 W 1010,1 10 0,0
13.08.2018 09:00:00 8,8 5,4 8 4 30 16 WNW 1009,8 47 0,0
13.08.2018 08:00:00 7,7 5,2 7 4 20 11 WNW 1009,9 37 0,0
13.08.2018 07:00:00 7,1 5,1 6 3 19 11 WNW 1009,8 50 0,0
13.08.2018 06:00:00 6,9 4,9 5 3 23 13 WNW 1009,8 50 0,0
13.08.2018 05:00:00 6,4 4,7 10 5 28 15 WNW 1010,0 50 0,0
13.08.2018 04:00:00 6,5 4,7 6 3 28 15 WNW 1010,1 50 0,0
13.08.2018 03:00:00 6,5 4,8 6 3 19 10 WNW 1010,2 50 0,0
13.08.2018 02:00:00 6,5 4,5 6 3 23 12 WNW 1010,2 50 0,0
13.08.2018 01:00:00 6,8 4,6 6 4 20 11 W 1010,2 50 0,0
13.08.2018 00:00:00 6,4 4,2 4 2 15 8 NNW 1010,4 50 0,0
12.08.2018 23:00:00 6,4 4,4 4 2 16 8 WNW 1010,4 50 0,0
12.08.2018 22:00:00 6,2 3,9 3 2 23 12 NW 1010,6 50 0,0
12.08.2018 21:00:00 7,8 4,2 7 4 26 14 WNW 1010,0 50 0,0
12.08.2018 20:00:00 8,9 3,7 9 5 26 14 WNW 1009,5 50 0,0
12.08.2018 19:00:00 10,2 4,1 10 5 25 14 W 1008,8 50 0,0
12.08.2018 18:00:00 11,6 4,6 7 4 20 11 W 1008,2 50 0,0
12.08.2018 17:00:00 10,7 3,9 3 2 21 11 SSW 1008,5 50 0,0
12.08.2018 16:00:00 11,2 4,9 6 3 22 12 W 1008,4 39 0,0
12.08.2018 15:00:00 10,9 4,6 5 3 15 8 W 1008,7 50 0,0
12.08.2018 14:00:00 11,8 3,8 4 2 15 8 SW 1008,5 41 0,0
12.08.2018 13:00:00 10,5 3,5 6 3 19 10 W 1009,0 50 0,0
12.08.2018 12:00:00 11,8 5,0 5 3 19 10 W 1008,3 47 0,0
12.08.2018 11:00:00 10,9 4,4 5 3 21 11 W 1008,6 42 0,0
12.08.2018 10:00:00 9,7 3,7 5 3 19 11 W 1008,9 50 0,0
12.08.2018 09:00:00 8,5 4,5 3 2 15 8 WSW 1009,5 50 0,0
12.08.2018 08:00:00 6,7 3,3 3 2 14 8 WSW 1010,2 50 0,0
12.08.2018 07:00:00 5,3 3,6 3 1 10 5 SSW 1011,1 50 0,0
12.08.2018 06:00:00 5,1 4,1 1 1 6 3 SW 1011,0 50 0,0
12.08.2018 05:00:00 5,1 4,1 1 1 7 4 W 1011,3 50 0,0
12.08.2018 04:00:00 5,5 4,3 1 1 8 5 W 1011,6 50 0,0
12.08.2018 03:00:00 6,1 4,1 2 1 6 3 SW 1011,7 50 0,0
12.08.2018 02:00:00 6,2 4,7 2 1 8 4 NW 1012,0 50 0,0
12.08.2018 01:00:00 6,6 4,9 1 1 6 3 N 1012,3 50 0,0
12.08.2018 00:00:00 7,1 5,2 2 1 6 3 NW 1012,3 50 0,0
11.08.2018 23:00:00 7,8 5,8 2 1 7 4 SW 1012,4 50 0,0
11.08.2018 22:00:00 7,5 6,0 2 1 6 3 S 1012,6 50 0,0
11.08.2018 21:00:00 7,7 6,5 1 1 6 3 S 1012,6 50 0,0
11.08.2018 20:00:00 8,8 7,7 3 1 9 5 NNE 1012,1 50 0,0
11.08.2018 19:00:00 9,0 7,6 3 1 8 5 NNW 1012,5 27 0,4
11.08.2018 18:00:00 11,3 7,4 1 1 7 4 WSW 1011,8 44 0,0
11.08.2018 17:00:00 11,5 6,2 2 1 8 5 SSW 1011,6 50 0,0
11.08.2018 16:00:00 12,9 5,3 3 1 14 8 SW 1011,2 50 0,0
11.08.2018 15:00:00 12,2 5,1 3 2 16 9 ESE 1011,6 50 0,0
11.08.2018 14:00:00 12,6 5,3 3 2 19 11 WSW 1011,4 50 0,0
11.08.2018 13:00:00 12,0 4,9 6 3 29 16 W 1011,6 48 0,0
11.08.2018 12:00:00 11,1 4,1 8 4 27 15 WNW 1011,7 50 0,0
11.08.2018 11:00:00 11,3 4,5 8 5 28 15 W 1011,0 47 0,0
11.08.2018 10:00:00 10,9 4,6 8 5 28 15 W 1010,3 50 0,0
11.08.2018 09:00:00 10,1 5,7 9 5 26 14 W 1009,8 50 0,0
11.08.2018 08:00:00 8,5 5,8 6 3 24 13 W 1009,4 50 0,0
11.08.2018 07:00:00 7,8 5,3 9 5 26 14 W 1008,9 50 0,0
11.08.2018 06:00:00 7,2 5,2 8 4 31 17 W 1007,8 50 0,0
11.08.2018 05:00:00 7,9 6,2 11 6 40 22 WNW 1006,3 50 0,0
11.08.2018 04:00:00 8,3 7,5 9 5 34 18 W 1004,5 40 0,2
11.08.2018 03:00:00 9,1 8,5 9 5 27 14 W 1002,0 29 0,2
11.08.2018 02:00:00 8,1 8,0 5 3 17 9 WSW 1000,3 17 0,9
11.08.2018 01:00:00 7,7 7,4 2 1 13 7 WSW 999,4 12 1,0
11.08.2018 00:00:00 7,9 7,3 3 2 30 16 S 999,2 45 0,0
10.08.2018 23:00:00 8,5 7,4 5 3 29 16 S 999,2 21 0,1
10.08.2018 22:00:00 10,5 7,4 7 4 36 19 SSW 998,4 50 0,0
10.08.2018 21:00:00 11,7 7,8 6 4 42 23 S 998,3 44 0,0
10.08.2018 20:00:00 13,0 8,1 13 7 49 26 SSW 998,0 49 0,0
10.08.2018 19:00:00 14,0 10,0 11 6 53 29 S 997,9 46 0,0
10.08.2018 18:00:00 15,1 12,2 16 9 47 26 S 997,6 38 1,0
10.08.2018 17:00:00 16,0 14,0 7 4 24 13 ESE 997,1 35 0,0
10.08.2018 16:00:00 15,3 14,2 8 5 28 15 ESE 998,7 35 0,1
10.08.2018 15:00:00 13,7 13,4 10 5 23 13 E 1000,4 7 0,1
10.08.2018 14:00:00 12,8 12,6 8 5 22 12 ESE 1001,3 5 0,0
10.08.2018 13:00:00 12,4 12,1 8 5 22 12 ESE 1002,1 8 0,1
10.08.2018 12:00:00 11,9 11,3 10 5 27 15 E 1003,0 12 0,0
10.08.2018 11:00:00 11,5 11,2 6 3 21 11 E 1004,6 23 0,0
10.08.2018 10:00:00 11,0 10,8 2 1 10 5 SE 1006,6 9 0,0
10.08.2018 09:00:00 10,8 10,6 1 1 8 4 SE 1007,2 11 1,3
10.08.2018 08:00:00 10,3 10,1 3 1 8 4 E 1008,8 6 1,6
10.08.2018 07:00:00 10,2 9,9 2 1 5 3 NNW 1009,6 10 1,4
10.08.2018 06:00:00 10,4 9,0 1 1 4 2 SE 1011,2 50 0,0
10.08.2018 05:00:00 9,8 8,1 1 1 3 2 NE 1011,7 50 0,0
10.08.2018 04:00:00 9,9 8,0 2 1 5 3 NNE 1012,4 50 0,0
10.08.2018 03:00:00 9,9 8,0 2 1 4 2 NW 1013,1 50 0,0
10.08.2018 02:00:00 10,5 7,4 2 1 5 3 ENE 1013,4 50 0,0
10.08.2018 01:00:00 10,6 7,8 1 1 9 5 E 1013,4 50 0,0
10.08.2018 00:00:00 10,9 6,8 1 1 6 3 NNE 1013,5 50 0,0
09.08.2018 23:00:00 11,7 6,0 2 1 8 4 ENE 1013,0 50 0,0
09.08.2018 22:00:00 13,1 6,0 4 2 10 5 NNW 1012,5 50 0,0
09.08.2018 21:00:00 14,5 6,6 3 2 23 12 WNW 1012,0 50 0,0
09.08.2018 20:00:00 17,3 6,5 3 2 21 11 WSW 1011,0 47 0,0
09.08.2018 19:00:00 19,1 5,5 7 4 24 13 SW 1010,0 50 0,0
09.08.2018 18:00:00 20,4 6,7 6 3 23 13 SW 1009,3 48 0,0
09.08.2018 17:00:00 22,0 8,8 8 5 25 14 S 1008,5 35 0,0
09.08.2018 16:00:00 22,0 8,1 7 4 29 16 SSW 1008,4 50 0,0
09.08.2018 15:00:00 21,1 9,7 6 4 27 14 SSW 1008,5 49 0,0
09.08.2018 14:00:00 20,9 9,5 7 4 23 12 SW 1008,1 43 0,0
09.08.2018 13:00:00 22,8 10,2 7 4 29 15 SSW 1007,3 34 0,0
09.08.2018 12:00:00 21,4 10,8 9 5 26 14 SSW 1007,3 39 0,0
09.08.2018 11:00:00 19,8 11,3 7 4 28 15 SSW 1007,5 46 0,0
09.08.2018 10:00:00 17,6 12,1 3 2 13 7 E 1008,0 50 0,0
09.08.2018 09:00:00 15,6 11,6 3 2 17 9 NNE 1008,1 50 0,0
09.08.2018 08:00:00 15,3 12,6 3 2 14 8 WSW 1007,7 49 0,0
09.08.2018 07:00:00 13,9 12,6 3 2 9 5 WNW 1007,3 41 0,0
09.08.2018 06:00:00 13,3 12,4 4 2 12 7 N 1007,0 31 0,0
09.08.2018 05:00:00 13,9 12,6 5 3 16 8 SSW 1006,4 35 0,0
09.08.2018 04:00:00 13,9 12,8 4 2 21 12 SW 1005,7 26 0,0
09.08.2018 03:00:00 14,5 13,2 5 3 27 14 SW 1005,5 33 0,0
09.08.2018 02:00:00 14,8 13,8 5 3 26 14 SSW 1005,0 26 0,1
09.08.2018 01:00:00 15,0 13,5 6 3 21 12 SSW 1005,2 40 0,0
09.08.2018 00:00:00 15,1 13,3 5 3 14 8 S 1005,2 46 0,0
08.08.2018 23:00:00 15,1 13,1 3 2 14 8 SE 1005,7 49 0,0
08.08.2018 22:00:00 15,5 13,0 4 2 20 11 SSE 1005,7 44 0,0
08.08.2018 21:00:00 15,4 13,1 5 3 17 9 SSW 1005,8 50 0,0
08.08.2018 20:00:00 16,2 13,1 5 3 26 14 S 1005,4 47 0,0
08.08.2018 19:00:00 16,6 12,9 6 3 21 11 SSW 1005,7 43 0,0

tt = Température de l'air
td = dewpoint
ff = Vitesse du vent
fx = gusts
dd = Direction du vent
ppp = reduced air pressure
vv = visibility
rr = Quantités de précipitations

stations d'obs. à proximité